EW8549 Weather Reports


Display with metric or nautical units.
time (UTC)temp
F
wind
direction
speed
MPH
gust
MPH
rain 1hr
in
rain 24hr
in
rain mn
in
humidity
%
barometer
mb
20260508221520 68 107 0.0 2.0 0.00 0.01 0.01 60 1010.3
20260508220020 68 129 0.0 0.0 0.00 0.01 0.01 60 1010.7
20260508214510 68 207 0.0 0.0 0.00 0.01 0.01 61 1010.8
20260508213009 68 213 0.0 2.0 0.00 0.01 0.01 60 1010.9
20260508211503 68 148 0.0 0.0 0.00 0.01 0.01 60 1011.1
20260508204557 69 239 0.0 0.0 0.00 0.01 0.01 58 1011.2
20260508203056 69 102 0.0 5.0 0.00 0.01 0.01 56 1011.2
20260508201546 70 153 0.0 3.0 0.00 0.01 0.01 56 1011.1
20260508200041 70 156 0.0 4.0 0.00 0.01 0.01 58 1011.6
20260508194536 70 148 0.0 6.0 0.00 0.01 0.01 58 1011.8
20260508193036 70 206 0.0 3.0 0.00 0.01 0.01 56 1011.5
20260508191531 70 100 0.0 0.0 0.00 0.01 0.01 56 1011.8
20260508190027 70 77 0.0 0.0 0.00 0.01 0.01 57 1011.7
20260508184519 69 152 0.0 0.0 0.00 0.01 0.01 57 1012.2
20260508183014 69 159 0.0 0.0 0.00 0.01 0.01 56 1012.5
20260508181512 69 136 0.0 0.0 0.00 0.01 0.01 56 1012.7
20260508180015 69 131 0.0 4.0 0.00 0.01 0.01 55 1012.9
20260508174604 69 184 0.0 0.0 0.00 0.01 0.01 56 1013.0
20260508173056 69 114 0.0 2.0 0.00 0.01 0.01 55 1012.8
20260508171553 68 86 0.0 9.0 0.00 0.01 0.01 54 1012.8
20260508170048 69 126 0.0 3.0 0.00 0.01 0.01 56 1013.5
20260508164546 69 91 0.0 0.0 0.00 0.01 0.01 54 1013.4
20260508163047 69 108 0.0 9.0 0.00 0.01 0.01 54 1013.8
20260508161539 68 70 0.0 0.0 0.00 0.01 0.01 56 1014.3
20260508160056 67 80 0.0 8.0 0.00 0.01 0.01 56 1014.6
20260508154529 67 79 0.0 10.0 0.00 0.01 0.01 55 1015.1
20260508153028 67 77 0.0 0.0 0.00 0.01 0.01 58 1015.1
20260508151520 66 96 1.0 9.0 0.00 0.01 0.01 60 1015.1
20260508150020 65 84 0.0 0.0 0.01 0.01 0.01 61 1015.2
20260508144512 65 100 1.0 6.0 0.01 0.01 0.01 61 1015.5
20260508143007 64 86 0.0 3.0 0.01 0.01 0.01 61 1015.3
20260508141504 63 82 2.0 13.0 0.01 0.01 0.01 62 1015.1
20260508140057 62 127 3.0 12.0 0.00 0.00 0.00 60 1015.6
20260508134553 62 96 0.0 9.0 0.00 0.00 0.00 48 1015.8
20260508133056 61 79 5.0 10.0 0.00 0.00 0.00 46 1015.9
20260508131544 59 86 3.0 8.0 0.00 0.00 0.00 1 1015.6
20260508130042 59 83 0.0 1.0 0.00 0.00 0.00 1 1015.5
20260508124534 57 99 0.0 0.0 0.00 0.00 0.00 1 1015.6
20260508123031 56 103 0.0 0.0 0.00 0.00 0.00 1 1015.8
20260508121549 55 103 0.0 0.0 0.00 0.00 0.00 1 1015.7
20260508120022 53 103 0.0 0.0 0.00 0.00 0.00 1 1015.7
20260508114517 52 103 0.0 0.0 0.00 0.00 0.00 1 1015.6
20260508113013 51 103 0.0 0.0 0.00 0.00 0.00 1 1015.2
20260508111509 50 103 0.0 0.0 0.00 0.00 0.00 1 1014.9
20260508110003 51 103 0.0 0.0 0.00 0.00 0.00 1 1014.8
20260508104559 51 103 0.0 0.0 0.00 0.03 0.00 1 1014.5
20260508103103 51 103 0.0 0.0 0.00 0.03 0.00 1 1014.5
20260508101551 52 103 0.0 0.0 0.00 0.03 0.00 1 1014.4
20260508100046 52 103 0.0 0.0 0.00 0.03 0.00 1 1014.3
20260508094549 52 103 0.0 0.0 0.00 0.03 0.00 1 1014.2
20260508093038 52 103 0.0 0.0 0.00 0.03 0.00 1 1014.1
20260508091533 52 103 0.0 0.0 0.00 0.03 0.00 1 1013.9
20260508090029 53 103 0.0 0.0 0.00 0.03 0.00 1 1013.8
20260508084525 53 103 0.0 0.0 0.00 0.23 0.00 1 1013.6
20260508083104 53 103 0.0 0.0 0.00 0.23 0.00 1 1013.3
20260508081516 53 103 0.0 0.0 0.00 0.23 0.00 1 1013.2
20260508080011 53 103 0.0 0.0 0.00 0.23 0.00 1 1013.4
20260508074508 54 103 0.0 0.0 0.00 0.24 0.00 1 1013.5
20260508073003 54 103 0.0 0.0 0.00 0.24 0.00 1 1013.5
20260508071559 54 103 0.0 0.0 0.00 0.24 0.00 1 1013.4
20260508070058 55 103 0.0 0.0 0.00 0.24 0.00 1 1013.5
20260508064605 55 103 0.0 0.0 0.00 0.24 0.00 1 1013.6
20260508063047 55 103 0.0 0.0 0.00 0.24 0.00 1 1013.7
20260508061544 55 103 0.0 0.0 0.00 0.24 0.00 1 1013.7
20260508060037 55 103 0.0 0.0 0.00 0.24 0.00 1 1014.0
20260508054532 55 103 0.0 0.0 0.00 0.24 0.00 1 1014.0
20260508053028 56 103 0.0 0.0 0.00 0.24 0.00 1 1014.1
20260508051525 56 103 0.0 0.0 0.00 0.24 0.00 1 1014.2
20260508050023 56 103 0.0 0.0 0.00 0.24 0.00 1 1014.2
20260508044515 56 103 0.0 0.0 0.00 0.24 0.24 1 1014.2
20260508043012 57 103 0.0 0.0 0.00 0.24 0.24 1 1014.4
20260508041513 57 103 0.0 0.0 0.00 0.24 0.24 1 1014.3
20260508040113 57 103 0.0 0.0 0.00 0.24 0.24 1 1014.4
20260508034558 58 103 0.0 0.0 0.00 0.24 0.24 1 1014.6
20260508033100 58 103 0.0 0.0 0.00 0.24 0.24 1 1014.6
20260508031549 58 310 0.0 0.0 0.00 0.24 0.24 1 1014.4
20260508030056 58 310 0.0 0.0 0.00 0.24 0.24 1 1014.2
20260508024552 59 310 0.0 0.0 0.00 0.24 0.24 1 1014.0
20260508023037 59 310 0.0 0.0 0.00 0.24 0.24 1 1014.0
20260508021533 60 310 0.0 0.0 0.00 0.24 0.24 1 1013.9
20260508020026 60 310 0.0 0.0 0.00 0.24 0.24 1 1013.8
20260508014530 60 310 0.0 0.0 0.00 0.24 0.24 1 1013.4
20260508013017 60 310 0.0 0.0 0.00 0.24 0.24 1 1013.5
20260508011513 60 310 0.0 0.0 0.00 0.24 0.24 1 1013.6
20260508010008 60 310 0.0 0.0 0.00 0.24 0.24 1 1013.4
20260508004503 61 310 0.0 0.0 0.00 0.24 0.24 1 1013.3
20260508003112 62 310 0.0 0.0 0.00 0.24 0.24 1 1013.1
20260508001556 64 310 0.0 0.0 0.00 0.24 0.24 1 1012.9
20260508000051 65 309 0.0 0.0 0.00 0.24 0.24 1 1013.1
20260507234547 66 310 0.0 0.0 0.00 0.24 0.24 24 1013.1
20260507233042 67 310 0.0 0.0 0.00 0.24 0.24 36 1013.0
20260507231540 67 310 0.0 0.0 0.00 0.24 0.24 57 1013.1
20260507230037 67 310 0.0 0.0 0.00 0.24 0.24 58 1013.1
20260507224529 67 300 0.0 0.0 0.00 0.24 0.24 58 1013.1
20260507223025 68 307 0.0 0.0 0.00 0.24 0.24 58 1013.1